Weather History for KXNA - May, 2013

Change the Weather History Date:

Wednesday, May 8, 2013

  Actual Average Record
Temperature  
Mean Temperature 64 °F -  
Max Temperature 78 °F - - ()
Min Temperature 50 °F - - ()
Degree Days  
Heating Degree Days 1    
Growing Degree Days 14 (Base 50)    
Moisture  
Dew Point 54 °F    
Average Humidity 71    
Maximum Humidity 93    
Minimum Humidity 45    
Precipitation  
Precipitation 0.00 in - - ()
Sea Level Pressure  
Sea Level Pressure 29.98 in    
Wind  
Wind Speed 3 mph (SSE)    
Max Wind Speed 14 mph    
Max Gust Speed -    
Visibility 10 miles    
Events      
T = Trace of Precipitation, MM = Missing Value Source: NWS Daily Summary

Daily Weather History Graph

Daily Weather History Graph

Search for Another Location

Airport or City:

Trip Planner

Search our weather history database for the weather conditions in past years. The results will help you decide how hot, cold, wet, or windy it might be!

Date:

Astronomy

May. 08, 2013 Rise Set
Actual Time 6:16 AM CDT 8:11 PM CDT
Civil Twilight 5:48 AM CDT 8:39 PM CDT
Nautical Twilight 5:14 AM CDT 9:13 PM CDT
Astronomical Twilight 4:38 AM CDT 9:50 PM CDT
Moon 5:22 AM CDT (5/8) 7:11 PM CDT (5/8)
Length of Visible Light 14h 50m
Length of Day
13h 54m
Waning Crescent, 2% of the Moon is Illuminated
May 8
Waning Crescent
May 9
New
May 17
First Quarter
May 24
Full
May 31
Last Quarter

Hourly Weather History & Observations

Time (CDT) Temp. Dew Point Humidity Pressure Visibility Wind Dir Wind Speed Gust Speed Precip Events Conditions
12:53 AM 54.0 °F 50.0 °F 86% 30.00 in 10.0 mi Calm Calm - N/A   Clear
1:53 AM 54.0 °F 50.0 °F 86% 29.99 in 10.0 mi Calm Calm - N/A   Clear
2:53 AM 53.1 °F 50.0 °F 89% 29.98 in 10.0 mi Calm Calm - N/A   Clear
3:53 AM 51.1 °F 48.0 °F 89% 29.98 in 10.0 mi Calm Calm - N/A   Clear
4:53 AM 51.1 °F 48.0 °F 89% 29.97 in 10.0 mi Calm Calm - N/A   Clear
5:53 AM 50.0 °F 48.0 °F 93% 29.98 in 10.0 mi Calm Calm - N/A   Clear
6:53 AM 51.1 °F 48.0 °F 89% 29.99 in 10.0 mi Calm Calm - N/A   Clear
7:53 AM 54.0 °F 52.0 °F 93% 30.00 in 8.0 mi Calm Calm - N/A   Clear
8:53 AM 63.0 °F 54.0 °F 72% 30.02 in 10.0 mi Calm Calm - N/A   Clear
9:53 AM 64.9 °F 55.0 °F 70% 30.05 in 10.0 mi NNE 3.5 mph - N/A   Mostly Cloudy
10:53 AM 69.1 °F 54.0 °F 58% 30.05 in 10.0 mi Calm Calm - N/A   Scattered Clouds
11:53 AM 71.1 °F 55.9 °F 59% 30.04 in 10.0 mi SE 3.5 mph - N/A   Mostly Cloudy
12:53 PM 69.1 °F 57.9 °F 68% 30.05 in 10.0 mi NNW 8.1 mph - 0.00 in   Overcast
1:53 PM 70.0 °F 59.0 °F 68% 30.04 in 10.0 mi NE 8.1 mph - 0.00 in   Mostly Cloudy
2:53 PM 75.0 °F 57.9 °F 55% 29.98 in 10.0 mi ESE 8.1 mph - N/A   Clear
3:53 PM 78.1 °F 55.9 °F 46% 29.95 in 10.0 mi South 13.8 mph - N/A   Clear
4:53 PM 78.1 °F 55.0 °F 45% 29.93 in 10.0 mi South 13.8 mph - N/A   Clear
5:53 PM 75.9 °F 53.1 °F 45% 29.92 in 10.0 mi South 12.7 mph - N/A   Clear
6:53 PM 73.9 °F 55.0 °F 52% 29.91 in 10.0 mi South 10.4 mph - N/A   Clear
7:53 PM 70.0 °F 55.9 °F 61% 29.91 in 10.0 mi South 9.2 mph - N/A   Clear
8:53 PM 64.9 °F 55.9 °F 73% 29.90 in 10.0 mi SSE 6.9 mph - N/A   Clear
9:53 PM 64.9 °F 55.9 °F 73% 29.91 in 10.0 mi South 6.9 mph - N/A   Clear
10:53 PM 66.0 °F 55.9 °F 70% 29.94 in 10.0 mi South 3.5 mph - N/A   Clear
11:53 PM 63.0 °F 55.9 °F 78% 29.95 in 10.0 mi South 3.5 mph - N/A   Clear